sat.trackr.live / text

‹ back to catalog

STARLINK-30478

NORAD 57911 · 2023-146W

PAYLOAD ACTIVE UNKNOWN

§ Identity

Operator
Country
US
Launch date
2023-09-20
Launch site
AFETR
Launch vehicle
Mass (kg)
RCS (m²)

Purposes: comms

External: N2YO · Heavens-Above · Gunter

§ Orbital elements

Epoch: 2026-05-24T23:07:27.398784Z

Period
94.27 min
Inclination
43.0017°
Eccentricity
0.0001384
Mean motion
15.27555202 rev/d
Perigee alt
482.2 km
Apogee alt
484.1 km
Semi-major
6,861.3 km
B*
2.6081e-4
RAAN
243.2436°
Arg perigee
276.8428°
Mean anomaly
83.2266°
Rev number
14,872

§ Raw data

STARLINK-304781 57911U 23146W   26144.96351156  .00006916  00000+0  26081-3 0  99932 57911  43.0017 243.2436 0001384 276.8428  83.2266 15.27555202148720

JSON: /api/v1/satellites/57911 · /tle

For live sub-satellite position, see the globe view (requires WebGL).

§ Visibility from observer

Set your observer location to see the next 7 days of passes ≥ 10°. The values pass through the URL so the page stays shareable.

No JS? Fill the form by hand. The geolocation button needs JavaScript.